Voltar ao catálogo

STARLINK-33702

AtivoComunicaçõesVLEO
NORAD 63591·PAYLOAD·🇺🇸 United States

Lançado Apr 14, 2025 de Cape Canaveral Space Force Station

Loading…

Próximas Passagens (próximas 24 horas)

TLE

AtualizadoSource: CelesTrak SupGP

Época: Sep 15, 2026, 03:48 UTC

1 63591C 25076Y   26258.15881944  .00042062  00000+0  15226-2 0  2586
2 63591  43.0022 331.4279 0001241 266.0603 323.8947 15.27578005    14

Acompanhe STARLINK-33702 em tempo real com AllMySat

Download on the App Store